Torna al catalogo

NOAA 16 DEB

AttivoPO
NORAD 41493·DEBRIS·🇺🇸 United States

Lanciato Sep 21, 2000 da Vandenberg Space Force Base

Loading…

Prossimi Passaggi (prossime 24 ore)

TLE

AggiornatoSource: Space-Track

Epoca: Sep 14, 2026, 11:09 UTC

1 41493U 00055LR  26257.46525995  .00005384  00000-0  12512-2 0  9991
2 41493  98.9201  76.3872 0022108 196.9179 163.1281 14.55237253546206

Traccia NOAA 16 DEB in tempo reale con AllMySat

Download on the App Store